Location: Dodgeville, WI 53533, USA
(43.0344°N, 90.0900°W)
Time: 03:11:53
(UTC-06:00)

OTV 5 (USA 277) - Visible Passes

Search period start: 19 February 2019 00:00
Search period end: 01 March 2019 00:00
Orbit: 342 x 346 km, 54.5° (Epoch: 17 February)

Date Brightness Start Highest point End Pass type
(mag) Time Alt. Az. Time Alt. Az. Time Alt. Az.
22 Feb ? 19:51:52 10° SW 19:52:09 12° SW 19:52:09 12° SW visible
23 Feb ? 18:41:19 10° S 18:43:40 23° SE 18:44:19 21° ESE visible
24 Feb ? 19:04:18 10° SW 19:07:11 82° SE 19:07:48 50° ENE visible
25 Feb ? 19:28:15 10° W 19:30:54 32° NNW 19:31:10 32° NNW visible
26 Feb ? 18:16:45 10° SW 18:19:37 78° SE 18:22:30 10° NE visible
26 Feb ? 19:52:53 10° WNW 19:54:24 16° NNW 19:54:24 16° NNW visible
27 Feb ? 18:40:40 10° W 18:43:20 34° NNW 18:46:01 10° NE visible
28 Feb ? 19:05:16 10° WNW 19:07:15 17° NNW 19:09:08 11° NNE visible
